Location: Newark
(53.3469°N, 7.1606°E)
Time: 13:39:24
(UTC+00:00)

N. Korean satellite - Pass Details

Date: 21 November 2019
Orbit: 455 x 506 km, 97.2° (Epoch: 10 December)

Event Time Altitude Azimuth Distance (km) Brightness Sun altitude
Rises 17:29:26 0° 205° (SSW) 2,577 10.7 -17.7°
Reaches altitude 10° 17:31:59 10° 224° (SW) 1,708 10.1 -18.1°
Maximum altitude 17:34:37 18° 270° (W) 1,281 9.7 -18.4°
Drops below altitude 10° 17:37:16 10° 315° (NW) 1,730 9.8 -18.8°
Sets 17:39:53 0° 335° (NNW) 2,625 10.5 -19.2°
